Location: Unspecified
(0.0000°N, 0.0000°E)
Time: 04:40:35
(UTC+00:00)

deb Delta 104 - Pass Details

Date: 09 March 2026
Orbit: 1403 x 1485 km, 102.0° (Epoch: 15 April)

Event Time Altitude Azimuth Distance (km) Brightness Sun altitude
Rises 04:50:43 0° 54° (NE) 4,566 ? -19.9°
Reaches altitude 10° 04:55:09 10° 76° (ENE) 3,575 ? -18.8°
Maximum altitude 04:59:27 15° 107° (ESE) 3,172 ? -17.7°
Drops below altitude 10° 05:03:42 10° 139° (SE) 3,548 ? -16.7°
Sets 05:08:01 0° 160° (SSE) 4,511 ? -15.6°
